Location: Carri�res
(48.9069°N, 2.1792°E)
Time: 17:42:26
(UTC+00:00)

SeaSat 1 - Pass Details

Date: 09 May 2021
Orbit: 744 x 747 km, 108.0° (Epoch: 12 June)

Event Time Altitude Azimuth Distance (km) Brightness Sun altitude
Rises 01:08:48 0° 23° (NNE) 3,203 7.3 -21.3°
Reaches altitude 10° 01:11:15 10° 15° (NNE) 2,275 6.1 -21.2°
Maximum altitude 01:15:39 34° 312° (NW) 1,228 3.7 -20.9°
Enters shadow 01:18:06 21° 264° (W) 1,621 3.9 -20.7°
